Regional Weather Roundup
Issued by NWS Sterling, VA

Home | Current Version | Previous Version | Text Only | Print | Product List | Glossary Off
Versions: 1 2 3 4 5 6 7 8 9 10 11 12 13 14 15 16 17 18 19 20 21 22 23 24 25 26 27 28 29 30 31 32 33 34 35 36 37 38 39 40 41 42 43 44 45 46 47 48 49

000
ASUS41 KLWX 022110
RWRLWX

REGIONAL WEATHER ROUNDUP
NATIONAL WEATHER SERVICE BALTIMORE MD/WASHINGTON DC
500 PM EDT TUE JUN 02 2015

Note: "FAIR" indicates few or no clouds below 12,000 feet
with no significant weather and/or obstructions to visibility.
 TC=TEMPERATURE CELSIUS

 * =Non NWS site. Station does not report precipitation (e.g. rain,
    snow, etc.), thunder, or fog.

DCZ001-MDZ009-015-VAZ040>042-051-053>054-022200-
WASHINGTON METRO

CITY           SKY/WX    TMP DP  RH WIND       PRES   REMARKS
WASHINGTON NAT CLOUDY    63  57  81 NE15      30.08S
DULLES         CLOUDY    60  55  83 NE10      30.08S
ANDREWS AFB    CLOUDY    58  57  95 NE10      30.07S
FT BELVOIR     CLOUDY    61  57  88 VRB3      30.07S
QUANTICO       CLOUDY    62  58  86 NE14      30.08R
COLLEGE PARK*  CLOUDY    59  57  94 NE5       30.09S
LEESBURG*      CLOUDY    61  59  94 N8        30.10S
MANASSAS*      CLOUDY    61  57  88 N9        30.08S
GAITHERSBURG*  CLOUDY    59  54  82 NE5       30.13R

$$

MDZ006>007-011-014-022200-
BALTIMORE METRO

CITY           SKY/WX    TMP DP  RH WIND       PRES   REMARKS
BWI AIRPORT    CLOUDY    59  54  83 NE12      30.09R
MD SCIENCE CTR   N/A     60  54  80 MISG      30.11R
MARTIN STATE   CLOUDY    59  57  94 CALM      30.12R
ANNAPOLIS      CLOUDY    60  59  96 NE5       30.08S
FORT MEADE*    CLOUDY    59  54  82 N6        30.11S

$$

MDZ012-015-019>023-022200-
MARYLAND EASTERN SHORE

CITY           SKY/WX    TMP DP  RH WIND       PRES   REMARKS
OCEAN CITY     CLOUDY    59  57  93 NE15G22   30.06S FOG
SALISBURY      LGT RAIN  58  56  93 NE12      30.07R
BAY BRIDGE AP* DRIZZLE  N/A N/A N/A NE6       30.09S
CAMBRIDGE*     CLOUDY    61  59  94 NE8       30.07R

$$

MDZ017>025-022200-
SOUTHERN MARYLAND

CITY           SKY/WX    TMP DP  RH WIND       PRES   REMARKS
PATUXENT RIVER DRIZZLE   62  60  93 NE12      30.07R FOG
ST INIGOES     RAIN      63  61  93 NE8       30.06R FOG
LEONARDTOWN*   CLOUDY    59  55  88 NE5       30.08R

$$

MDZ003>005-022200-
NORTH CENTRAL MARYLAND

CITY           SKY/WX    TMP DP  RH WIND       PRES   REMARKS
FREDERICK*     CLOUDY    61  57  88 NE10      30.13R
HAGERSTOWN APT CLOUDY    62  55  77 NE9       30.09S
WESTMINSTER*   CLOUDY    57  54  88 NE7       30.10S

$$

MDZ501>502-022200-
WESTERN MARYLAND

CITY           SKY/WX    TMP DP  RH WIND       PRES   REMARKS
OAKLAND*       CLOUDY    55 N/A N/A E6        30.11F
CUMBERLAND*    CLOUDY    63  57  82 N5        30.13S

$$

VAZ025>031-022200-
SHENANDOAH VALLEY

CITY           SKY/WX    TMP DP  RH WIND       PRES   REMARKS
WINCHESTER*    CLOUDY    63  57  82 NE5       30.10R
FRONT ROYAL*   CLOUDY    59  55  88 N6        30.09R
LURAY*         CLOUDY    63  61  94 NE8       30.08R
NEW MARKET*    CLOUDY    63  58  83 N9        30.06R
STAUNTON*      CLOUDY    66  61  84 NE12      30.08R
WAYNESBORO*    CLOUDY    63  59  87 N9        30.07R

$$

WVZ021-048>050-054>055-022200-
EASTERN WEST VIRGINIA PANHANDLE

CITY           SKY/WX    TMP DP  RH WIND       PRES   REMARKS
MARTINSBURG    CLOUDY    62  55  77 NE10      30.10S
PETERSBURG*    CLOUDY    63  58  81 NE7       30.10R

$$

VAZ036>039-050-022200-
CENTRAL FOOTHILLS

CITY           SKY/WX    TMP DP  RH WIND       PRES   REMARKS
CHARLOTTESVILL CLOUDY    64  59  83 NE13      30.05R HAZE
CULPEPER*      CLOUDY    62  56  83 NE8       30.08R
ORANGE*        CLOUDY    64  59  82 N9        30.07R
GORDONSVILLE*  CLOUDY    64  59  82 NE14      30.05R
WARRENTON*     CLOUDY    63  59  86 NE12      30.07S

$$

VAZ055>057-022200-
NORTH AND CENTRAL PIEDMONT

CITY           SKY/WX    TMP DP  RH WIND       PRES   REMARKS
FREDERICKSBRG* CLOUDY    64  63  94 NE9       30.06R
STAFFORD*      CLOUDY    62  58  88 NE6       30.10S

$$

NCZ024-NYZ072-PAZ021-071-VAZ022-071-022200-
OTHER REGIONAL OBSERVATIONS

CITY           SKY/WX    TMP DP  RH WIND       PRES   REMARKS
NEW YORK CITY  LGT RAIN  54  51  90 E3        30.15S
PHILADELPHIA   LGT RAIN  57  54  89 NE9       30.12S FOG
PITTSBURGH     CLOUDY    62  53  72 E8        30.10F
ROANOKE        CLOUDY    76  63  64 E3        30.00S
RICHMOND       CLOUDY    67  63  87 N13       30.03R
RALEIGH        CLOUDY    79  67  66 SE6       29.96F

$$

ANZ530>537-022200-
MARINE OBSERVATIONS

STATION/POSITION TIME  TEMP    WIND        PRES
                       AIR SEA DIR/SP/G
                 (UTC) (F)     (DEG/KT/KT) (MB)
THOMAS PT LIGHT  2100   59 72   50/ 16/ 18 1019.1S
BALT KEY BRIDGE  2000   59      20/ 12/ 14 1018.7F
COVE POINT       2000   60      30/ 12/ 19 1018.5R
LEWISETTA        2000   64 74              1017.0S
SOLOMONS ISLAND  2000      72                N/A
PINEY POINT      2000           30/  9/ 11   N/A

$$




USA.gov is the U.S. government's official web portal to all federal, state and local government web resources and services.